WMKE

Details ICAO WMKE (KTE)
Name Kerteh
Region Malaysia (Peninsular Malaysia)
Timezone Asia/Kuala_Lumpur (UTC+8.0)
Plans Departing 1
Arriving 5
Stats Elevation 18 ft / 5 m (AMSL)
Location 4.537223° 103.426754°
Runways 1
Magnetic Variation 0.025° E
Sunrise 2018-05-25 22:54:09 UTC / 2018-05-26 06:54:09 Local
Sunset 2018-05-26 11:15:20 UTC / 2018-05-26 19:15:20 Local
Advertisement - Login to hide

Runways

ID Width Length Bearing (true) Bearing (mag) Surface Threshold Offset Overrun Length
16 98 ft / 30 m 4,469 ft / 1,362 m 162.68° 162.65° Asphalt 0 ft / 0 m 130 ft / 40 m
34 98 ft / 30 m 4,469 ft / 1,362 m 342.68° 342.65° Asphalt 0 ft / 0 m 0 ft / 0 m

Approach Navaids

Runway Type Ident Frequency Range Bearing (true) Bearing (mag) Slope Elevation
34 Localiser IKE 108.70 MHz 18 nm / 33 km 342.74° 342.71° - 18 ft / 5 m (AMSL)
34 Glidescope IKE 108.70 MHz 10 nm / 19 km 342.68° 342.65° 3.00° 18 ft / 5 m (AMSL)

Map

Weather


0- 5 10 15 20 25 30 35+ Temperature / ° C

Clouds and Precipitation
Forecast for 2018-05-26 06:00 UTC. Updated 3 hours ago

Ground ~20,000 ft ~40,000 ft Winds

METAR

WMKE 260700Z 04004KT 340V100 9999 SCT020 SCT140 BKN260 30/26 Q1007 RERA

TAF

TAF AMD WMKE 260120Z 2601/2700 VRB03KT 9999 FEW020 TEMPO 2601/2603 4000 TSRA FEW010 FEW016CB SCT020 TEMPO 2606/2610 35005KT 5000 TSRA FEW016CB SCT018

Frequencies

Ground 121.80 MHz GND
Tower 123.30 MHz TWR
Warning: Do not use this data for real-world aviation or navigation. No guarantee of current accuracy is given.